Theta_e
281 280 279 278 277 277 277 277 277 277 276 276 275 275 275 275 276 278 281 283 283 284 284 285 285 286 286 286 286 286 286 286 287 287 287 288 288 288 288 288 288 288 287 288 288 288 288 288 288 288 288 289 289 289 289 289 288 287 287 288 288 288 288 286 287 286 283 281 282 281 281 282 281 281 281 281 281 281 281 281 281 281 280 280 280
279 278 277 277 277 277 276 276 275 275 275 274 274 274 274 275 277 279 281 282 283 284 285 285 286 286 286 286 286 286 287 286 286 287 287 287 288 288 288 288 288 288 287 287 288 288 288 288 288 288 288 288 288 288 289 289 289 288 287 287 288 288 288 287 288 287 282 280 281 281 280 281 281 281 281 281 281 281 281 280 280 280 280 280 280
277 277 276 276 276 276 275 274 274 273 273 273 273 274 275 276 278 280 281 283 284 284 285 285 285 285 285 285 286 286 286 286 286 286 287 287 287 288 288 288 288 287 287 287 287 287 288 288 288 288 288 288 288 288 288 288 288 288 287 287 287 287 288 287 288 288 283 279 280 280 280 280 280 281 281 281 281 280 280 280 280 280 280 280 280
276 276 276 276 275 274 273 273 273 273 273 273 274 274 276 277 279 280 282 282 283 283 283 283 283 283 283 283 283 284 285 285 285 286 286 287 287 288 288 288 288 288 287 287 287 287 287 288 288 288 288 288 288 288 288 288 288 288 287 287 287 287 287 287 287 288 284 280 279 280 280 280 280 280 280 280 280 280 280 280 280 280 280 279 279
275 275 275 274 273 273 272 272 272 273 273 273 274 276 277 278 279 280 280 281 281 281 281 281 281 281 282 282 282 282 283 284 284 285 286 287 287 287 288 288 287 288 287 287 287 287 287 287 287 288 288 288 288 288 288 288 287 287 287 287 287 286 287 286 286 287 286 282 279 279 280 280 280 280 280 279 279 279 279 279 280 279 279 279 279
275 274 273 273 272 272 272 272 272 273 274 275 275 276 277 278 279 279 279 279 279 279 279 280 280 281 281 282 282 282 283 283 284 285 286 286 287 287 287 287 288 288 287 287 287 287 287 287 287 287 287 287 287 287 287 287 287 287 287 287 287 286 286 286 285 286 285 283 280 279 279 279 279 279 279 279 279 279 279 279 279 279 279 279 278
273 272 272 271 271 271 272 272 272 272 273 274 275 275 276 277 278 278 278 277 277 277 277 278 279 280 281 282 283 283 283 284 284 285 285 286 287 286 287 287 287 287 287 287 287 287 287 287 287 287 287 287 287 287 287 287 287 287 287 286 286 286 285 285 285 285 284 282 280 279 278 278 279 278 278 279 279 278 279 278 278 278 278 278 278
270 270 271 271 271 271 271 270 270 270 271 272 273 273 274 276 277 277 276 276 276 276 276 276 277 278 280 282 282 282 283 284 284 285 285 286 286 286 286 287 287 287 287 287 287 287 287 287 287 287 287 286 287 287 286 286 286 286 286 286 286 285 285 285 284 284 284 283 280 279 278 278 278 278 278 278 278 278 278 278 277 277 278 278 278
270 270 270 270 270 269 269 269 269 269 270 271 272 273 274 275 276 275 275 275 275 275 275 275 275 277 279 280 281 282 282 283 283 284 284 285 286 286 286 287 287 287 287 287 287 287 287 287 287 286 286 286 286 286 286 286 286 286 286 285 285 285 285 284 284 284 284 283 281 279 278 278 278 278 277 277 277 278 277 277 277 277 277 277 277
269 269 269 269 268 268 268 268 269 269 270 271 272 273 274 274 274 273 273 273 274 274 274 274 275 276 278 279 280 281 281 281 282 283 284 284 285 286 286 286 287 287 287 287 287 287 287 286 286 286 286 286 285 285 286 286 286 286 285 285 285 285 284 284 284 283 283 284 283 280 279 278 278 278 277 277 277 277 277 277 277 277 277 277 277
269 268 268 267 267 267 268 268 269 270 271 271 272 272 272 272 272 272 272 273 273 273 274 274 275 276 278 279 279 280 280 281 282 283 283 283 284 286 286 286 287 287 287 287 287 287 287 286 286 286 286 286 285 285 285 285 285 285 285 285 285 285 284 284 283 283 283 283 283 281 279 279 278 278 278 278 277 277 277 277 277 277 277 276 276
268 267 267 267 267 267 268 269 269 270 271 271 270 270 270 270 270 271 272 272 273 273 274 274 275 276 277 278 279 280 280 281 282 283 283 283 284 286 286 286 287 287 287 287 287 287 287 286 286 286 286 286 285 285 284 284 284 285 285 285 285 285 285 284 284 283 283 283 283 282 281 280 279 278 278 278 278 277 277 277 277 277 277 277 276
267 266 266 267 267 267 268 268 269 269 270 270 269 269 269 269 270 271 271 272 273 273 273 274 275 276 278 279 279 280 281 282 283 284 284 284 285 286 286 286 287 287 287 287 287 287 287 286 286 286 286 285 285 285 284 284 283 284 284 285 285 285 284 284 284 284 283 283 283 283 282 281 280 279 279 278 278 277 278 277 277 277 277 277 277
266 266 266 267 267 267 267 268 268 269 269 269 268 268 268 269 270 271 271 272 272 273 273 274 275 277 278 280 280 281 282 283 284 285 285 286 286 286 286 286 287 286 286 287 287 286 286 286 286 286 285 285 285 284 284 284 283 283 283 284 285 285 284 284 284 284 283 283 283 283 283 282 281 280 279 279 278 278 278 278 278 277 277 277 277
266 266 266 266 266 267 267 267 268 268 268 268 268 268 268 269 270 270 270 271 272 272 273 273 275 277 279 280 281 283 284 285 285 286 286 286 287 286 286 286 286 286 286 286 286 286 286 286 286 286 286 285 285 284 284 284 284 283 283 283 284 285 284 284 284 284 283 283 282 283 283 282 282 281 280 279 279 279 278 278 278 278 277 277 277
266 266 266 266 266 266 267 267 267 268 268 268 267 268 268 269 269 270 270 270 271 272 273 274 275 277 279 280 281 283 285 285 285 286 286 286 286 286 286 286 286 286 286 286 286 286 286 287 286 286 286 286 285 285 285 284 284 284 284 283 284 284 284 284 284 283 283 283 282 282 282 282 282 281 280 279 279 279 279 278 278 278 277 276 276
266 266 266 266 266 266 267 267 267 267 267 267 267 267 268 268 269 269 270 270 271 272 273 274 275 277 279 280 281 283 284 285 285 285 286 286 286 286 286 286 286 286 286 286 286 286 286 287 286 286 286 286 285 285 285 284 284 284 283 283 283 284 283 283 283 283 283 282 282 282 281 281 281 281 280 280 279 279 279 278 277 277 277 276 275
266 266 266 266 266 266 266 267 267 267 267 267 267 267 268 268 268 269 269 270 271 272 273 274 275 277 279 280 281 283 285 285 285 285 285 285 286 286 286 286 286 286 286 286 286 286 286 286 286 286 286 286 286 285 285 284 284 283 283 283 283 283 283 283 282 282 282 282 281 281 281 281 281 281 280 280 279 279 279 278 277 277 276 276 275
265 266 266 266 266 266 266 266 266 266 267 267 267 267 267 268 268 269 269 270 271 272 273 274 276 278 279 280 282 283 285 285 285 285 285 285 286 286 286 286 286 286 286 286 286 286 286 286 286 286 286 285 285 285 285 285 284 284 283 283 282 282 282 282 282 282 282 282 281 281 281 281 281 280 280 280 279 279 279 279 278 277 276 276 275
265 265 266 266 266 266 266 266 266 266 266 266 267 267 267 268 268 269 269 270 272 273 275 276 277 279 281 282 282 284 284 285 285 285 285 285 285 285 285 286 286 286 286 286 286 286 286 286 286 286 286 285 285 285 285 285 285 284 283 282 282 282 282 281 281 281 281 281 281 281 280 280 280 280 280 279 278 278 278 279 278 278 277 276 275
265 265 265 265 265 266 266 266 266 266 266 266 267 267 267 268 269 269 270 271 273 275 276 278 280 281 282 283 284 284 284 284 284 283 283 283 283 283 284 284 285 285 285 286 286 285 285 285 286 286 285 285 285 285 284 285 285 284 283 282 282 282 281 281 281 281 281 281 280 280 280 280 280 279 279 278 278 278 278 278 278 278 277 277 275
265 265 265 265 265 265 266 266 266 266 266 266 267 267 268 269 269 270 271 273 274 275 277 279 282 283 282 283 283 283 283 283 282 282 282 282 282 282 283 283 283 284 284 285 285 284 285 285 285 285 285 285 285 285 284 285 284 283 282 282 282 281 280 280 280 280 280 279 279 279 279 278 278 278 278 277 277 277 277 277 277 276 276 276 275
265 265 265 265 265 265 265 266 266 266 266 267 267 268 268 269 269 270 272 273 274 275 277 279 281 282 281 281 281 281 282 282 282 282 281 281 281 282 282 282 282 282 283 284 284 284 284 285 285 285 285 284 285 285 284 284 284 283 282 282 281 280 280 280 280 279 278 278 277 277 276 276 276 276 277 277 276 276 276 276 276 275 275 275 275
265 265 265 265 265 265 265 266 266 266 266 267 267 268 268 269 269 270 271 272 273 275 276 277 280 281 281 281 281 281 281 281 281 281 281 281 281 281 281 281 282 282 283 283 284 284 284 284 284 284 283 283 284 284 283 284 283 282 282 282 281 280 280 279 278 277 276 276 275 274 274 275 276 276 276 276 276 276 275 275 275 275 275 274 273
264 264 264 265 265 265 265 266 266 266 267 267 268 268 268 269 269 270 271 272 273 274 275 276 278 280 281 281 281 281 280 279 280 280 281 280 280 280 281 281 282 282 283 283 283 283 283 283 282 282 282 283 283 283 283 283 283 282 282 281 280 279 279 278 277 276 275 275 274 274 273 274 275 275 275 275 275 275 275 275 274 274 273 272 271
264 264 264 265 265 265 265 265 266 266 267 267 268 268 268 269 269 270 271 271 273 274 275 276 278 279 280 280 280 279 278 278 279 280 280 280 279 280 281 281 281 282 283 282 282 282 282 281 281 281 282 282 283 283 282 282 282 282 281 281 279 278 277 277 276 275 275 274 274 273 273 273 274 274 274 275 275 275 274 274 273 272 271 270 269
264 264 264 265 265 265 265 266 266 266 267 267 268 268 268 269 269 270 271 271 272 273 274 276 277 279 280 279 278 278 278 278 279 280 280 280 280 280 281 282 282 282 282 281 281 281 281 281 281 281 282 282 282 282 282 282 281 281 280 279 278 277 277 276 276 275 275 274 273 273 272 272 273 273 274 274 274 273 272 271 270 270 269 268 268
264 264 264 264 265 265 265 266 266 266 267 267 268 268 268 269 269 270 271 272 273 274 275 276 278 279 279 279 278 278 278 278 279 280 280 280 280 281 282 282 282 281 281 280 280 280 280 281 281 281 281 280 280 280 280 280 279 278 278 277 277 276 276 276 275 275 274 273 272 272 272 272 272 273 272 272 271 270 270 269 269 269 268 268 268
264 264 264 264 264 265 265 266 266 266 267 267 268 268 269 269 270 271 272 273 274 275 276 278 279 280 280 280 279 278 278 279 280 280 280 280 281 281 282 281 281 281 280 280 280 280 280 280 279 279 278 277 277 277 276 276 276 276 276 276 276 275 275 275 274 273 272 272 272 272 271 271 271 271 271 270 269 269 269 268 269 269 269 269 269
264 264 264 264 265 265 266 266 266 267 267 268 268 268 269 270 271 272 272 273 275 276 277 279 280 280 281 281 280 279 279 280 280 280 280 281 281 281 281 281 280 280 280 280 279 279 278 277 277 276 275 275 274 274 274 274 274 274 274 275 275 274 274 273 272 272 272 272 272 272 271 271 270 269 269 269 268 268 268 268 268 269 269 269 268
264 264 264 264 265 265 266 266 266 267 267 268 268 269 269 270 271 272 273 274 275 276 278 279 280 281 281 281 281 280 280 280 280 280 281 281 281 281 280 280 280 280 279 279 278 277 276 276 275 275 274 274 273 273 273 273 273 272 272 273 273 273 273 272 272 272 272 272 272 272 271 271 269 269 268 268 268 267 267 267 268 269 269 269 268
264 264 264 265 265 266 266 266 267 267 268 268 268 269 269 270 271 272 273 274 275 276 278 279 280 280 281 282 281 281 281 280 280 281 281 282 281 281 281 281 280 279 279 279 277 275 275 275 274 274 273 273 272 272 272 272 272 271 272 271 271 272 272 272 272 272 273 272 271 271 270 270 269 269 268 268 268 267 267 267 268 268 268 268 267
264 264 264 265 266 266 266 266 267 267 268 268 269 269 270 270 271 271 273 274 276 277 278 279 279 280 281 282 282 281 281 281 281 281 282 282 282 281 281 280 279 279 279 278 275 274 274 274 273 273 273 272 272 272 271 271 271 271 271 271 270 271 271 272 272 272 272 272 271 270 269 269 269 268 268 268 268 268 268 268 268 268 267 267 266
264 264 265 265 266 266 266 267 267 268 268 269 269 270 270 271 271 271 272 273 275 276 277 278 279 279 280 281 282 282 282 282 282 282 282 282 281 281 280 279 278 278 277 276 274 274 274 273 273 273 272 272 271 271 271 270 270 270 270 270 270 271 271 271 272 272 271 271 270 270 269 269 269 269 268 268 268 268 268 268 267 267 267 267 267
264 265 265 266 266 266 267 267 268 268 269 269 270 270 271 271 271 272 272 273 274 275 276 277 278 279 280 281 281 282 282 282 282 282 282 281 280 279 278 277 276 276 275 275 274 274 273 273 273 272 272 271 271 271 270 270 270 271 271 270 270 270 270 270 270 270 270 270 269 269 269 269 269 269 269 269 268 268 268 267 267 267 267 267 266
264 265 265 266 266 267 267 268 268 269 269 270 270 271 271 271 272 272 273 273 275 276 276 276 278 279 279 280 280 281 282 282 282 281 280 279 279 279 277 276 275 274 274 274 274 273 273 273 272 272 271 271 271 270 270 270 270 271 272 271 271 270 269 269 269 269 269 269 269 269 269 269 269 269 269 269 269 269 268 268 267 267 267 266 266
265 265 265 266 266 267 268 268 269 269 270 270 271 271 272 272 273 273 273 274 275 276 276 276 277 278 278 279 279 279 280 280 280 279 279 278 278 278 276 275 274 274 274 273 273 273 273 272 272 272 271 271 271 270 270 270 271 271 271 271 270 269 268 268 268 269 269 269 269 269 269 269 269 270 269 269 268 268 268 267 267 266 266 265 265
265 265 266 266 267 267 268 268 269 270 270 271 271 272 272 273 273 274 274 275 275 275 276 276 277 277 278 278 278 278 279 278 278 278 277 277 277 276 275 275 274 274 273 273 273 273 272 272 272 271 271 271 271 271 271 271 272 272 270 269 268 268 268 268 268 269 269 269 269 269 269 269 269 269 269 269 269 268 267 267 266 266 265 265 264
265 265 266 266 267 267 268 269 269 270 270 271 271 272 273 274 274 275 275 275 275 275 275 276 276 277 277 277 277 277 277 277 276 275 275 275 275 275 274 274 274 273 273 273 273 272 272 272 271 271 271 271 271 271 272 272 272 271 270 268 267 267 267 268 268 268 269 269 269 269 269 269 269 269 269 269 269 268 267 266 266 266 265 265 265
265 265 266 266 267 268 268 269 269 270 270 271 272 272 273 274 275 275 275 275 274 275 275 276 276 276 277 277 276 276 276 275 274 274 273 273 274 274 273 273 273 273 272 272 272 272 272 272 272 271 271 271 271 272 272 272 272 270 269 268 267 267 268 268 269 269 269 270 270 269 269 269 269 268 268 268 268 267 267 266 266 266 265 265 265
265 266 266 267 267 268 268 269 269 270 270 271 272 272 274 274 274 274 274 274 274 274 275 275 275 275 276 276 276 275 275 274 273 273 272 272 272 272 272 272 272 272 272 272 272 272 272 272 272 272 271 271 271 272 272 273 272 270 269 268 268 268 268 269 269 269 270 270 270 269 269 269 268 268 267 267 267 266 266 266 266 266 265 265 264
265 266 266 266 267 268 268 269 269 270 270 271 272 273 274 274 274 274 274 274 274 274 274 274 274 273 274 274 274 274 273 273 272 271 271 271 271 272 272 272 272 272 272 272 272 272 272 272 272 272 272 272 272 273 273 272 271 270 269 269 269 269 269 269 269 269 270 270 269 269 268 268 268 267 267 266 266 266 266 266 266 265 265 264 264
265 266 266 266 267 267 268 268 269 270 270 271 271 272 273 274 273 273 273 273 273 273 273 273 273 272 272 272 272 272 272 271 270 270 269 270 270 271 271 272 272 272 272 272 272 272 272 272 272 272 272 273 273 273 273 273 272 271 270 269 269 269 269 269 269 269 269 269 269 268 268 267 267 266 266 267 267 266 266 265 265 265 264 264 263
265 265 266 266 267 267 267 268 269 269 270 270 271 272 273 273 273 273 273 273 273 272 272 271 271 271 270 270 270 270 269 269 268 268 268 268 269 269 270 270 271 272 272 272 272 272 272 272 272 272 272 272 272 273 273 273 272 271 270 270 269 270 270 270 270 269 269 269 268 268 267 267 267 266 267 267 266 266 265 265 265 264 264 263 263
264 265 265 266 266 267 267 268 268 269 269 270 270 272 272 272 272 272 272 272 272 271 271 270 270 270 269 269 268 268 267 267 267 267 267 267 268 268 269 269 270 271 272 272 272 272 273 273 273 273 273 273 273 272 272 271 271 270 270 270 270 270 270 270 270 270 269 269 269 268 267 267 267 267 267 266 266 266 265 265 265 264 263 263 262
264 264 265 265 266 266 267 267 268 268 269 269 270 271 272 272 272 272 271 271 271 271 270 270 269 269 268 268 267 266 266 266 266 266 266 266 266 267 268 268 269 270 270 271 271 271 272 273 273 273 273 272 271 271 270 269 269 268 269 269 270 270 270 270 270 269 269 269 268 268 268 267 267 266 266 266 266 265 265 264 264 264 263 263 262
264 264 264 265 265 266 266 266 267 267 268 269 270 270 271 271 271 271 271 270 270 270 269 269 269 268 268 267 267 266 265 265 265 265 265 265 265 266 267 267 268 269 269 270 270 270 271 271 271 271 270 270 269 269 268 268 268 268 268 268 269 269 269 269 269 269 268 268 268 267 267 267 267 266 266 266 265 265 265 264 264 263 263 262 262
263 263 264 264 265 265 265 266 266 267 267 268 269 270 270 270 270 270 270 270 269 269 268 268 268 268 267 267 266 265 264 264 264 264 265 265 265 266 266 267 267 268 269 269 269 269 269 269 268 268 268 268 268 268 268 267 267 268 268 268 269 269 269 269 268 268 267 267 267 267 267 267 267 266 266 265 265 265 264 264 263 263 263 262 261
263 263 263 264 264 264 265 265 265 266 266 267 268 269 269 269 269 269 269 269 268 268 268 268 267 267 266 266 265 264 264 264 264 264 265 265 266 266 266 267 267 268 268 269 269 268 268 268 267 267 267 267 267 267 267 267 268 268 268 268 268 268 268 268 268 267 267 267 267 267 267 266 266 266 266 265 265 264 264 264 263 263 262 262 261
262 262 263 263 263 263 264 264 264 265 265 266 267 267 268 268 268 268 268 268 268 268 267 267 266 266 265 265 264 264 264 264 264 264 265 265 266 266 267 268 268 269 269 269 268 268 267 267 267 267 267 267 267 267 267 268 268 268 268 268 268 268 268 267 267 267 267 267 267 267 266 266 266 265 265 265 264 264 263 263 263 262 262 262 261
261 262 262 262 262 263 263 263 263 264 264 265 265 266 267 267 267 267 267 267 267 267 267 266 265 265 265 264 264 264 265 264 264 265 265 266 266 267 267 268 269 269 269 268 268 267 267 267 267 267 267 267 267 267 267 267 267 268 268 268 267 267 267 267 267 267 267 267 266 266 266 265 265 265 264 264 264 263 263 263 262 262 262 262 261
Wind_Speed
24 20 22 27 30 33 33 31 29 30 33 37 40 43 44 42 38 35 33 33 32 31 31 32 30 27 25 24 24 25 26 27 26 27 28 29 30 29 29 27 26 26 26 26 25 25 25 25 27 29 28 27 28 29 29 29 27 26 29 32 32 31 28 22 12 7 15 26 29 30 33 34 37 39 38 36 37 37 37 37 36 35 35 34 33
23 24 29 32 33 31 29 29 32 39 44 46 46 45 41 37 35 34 33 33 31 29 29 29 26 24 24 24 24 24 24 25 26 27 28 29 29 29 29 28 27 26 25 25 26 25 25 26 26 27 26 26 27 28 29 30 29 27 28 30 33 34 32 28 20 9 9 18 24 26 30 33 34 36 38 38 38 39 38 38 37 36 36 35 34
26 31 33 32 29 29 30 34 41 46 48 46 44 40 36 34 35 34 32 30 28 25 24 24 23 22 23 23 23 23 23 24 26 26 27 29 29 29 29 28 28 27 26 26 26 25 25 26 27 28 26 25 27 28 28 29 30 29 29 29 30 32 33 32 27 16 10 15 23 26 29 32 33 34 37 39 38 38 37 37 37 36 35 35 34
32 33 31 28 29 33 36 39 42 43 42 41 39 35 34 34 33 29 25 23 21 19 20 21 21 22 23 23 23 22 23 24 25 26 27 28 29 29 29 29 29 28 28 27 26 25 25 26 27 27 27 27 28 28 27 27 29 30 30 30 29 29 29 31 30 24 15 14 20 26 30 33 32 32 35 36 34 35 35 35 36 35 35 34 34
33 30 28 30 33 36 37 38 39 39 38 37 34 32 32 32 29 25 21 19 19 19 20 20 20 22 24 25 26 25 25 25 25 27 28 28 29 29 29 29 30 29 29 28 27 26 26 26 26 25 25 27 28 28 28 28 28 29 29 29 30 29 27 27 27 26 22 18 19 23 26 29 28 28 33 33 31 30 31 32 34 35 34 33 33
27 28 31 34 35 35 35 35 34 34 33 30 27 29 30 27 24 21 19 19 19 19 20 20 21 23 24 25 26 27 27 27 26 27 29 30 29 29 30 30 30 30 29 28 28 28 27 26 26 25 24 25 26 26 27 29 29 29 30 29 29 28 26 24 23 23 22 20 20 21 23 26 24 24 29 33 32 31 31 30 31 33 33 31 31
26 31 34 34 33 32 30 27 28 31 31 27 26 29 30 27 24 21 21 21 22 22 23 23 24 24 24 25 25 25 25 24 24 25 27 30 30 29 29 30 30 29 29 29 29 28 27 26 24 25 26 26 26 25 25 27 29 30 31 31 29 27 25 24 22 20 19 17 18 21 23 25 24 24 27 31 31 31 34 31 26 27 30 30 31
29 32 32 30 28 25 25 27 32 35 32 29 29 29 29 28 24 22 23 24 24 25 26 27 27 26 24 25 25 24 23 22 22 22 23 26 29 30 30 30 29 28 29 29 29 28 27 26 24 24 25 25 25 25 25 26 27 28 30 30 29 28 26 25 22 20 19 16 16 18 20 22 23 22 23 27 27 26 30 30 25 26 30 30 31
29 29 27 25 23 24 30 35 37 36 30 27 29 29 28 26 23 24 27 27 28 29 30 31 31 28 25 25 26 26 24 24 24 23 23 23 27 31 33 32 30 28 28 29 29 29 27 26 25 25 25 24 24 24 25 25 25 27 28 28 28 27 26 24 22 21 20 17 15 16 17 19 22 22 23 28 29 26 27 28 26 27 28 27 28
27 25 24 25 25 26 32 36 34 31 28 25 26 26 25 24 24 27 29 30 32 33 33 32 30 27 26 26 27 27 27 26 26 26 25 24 26 30 32 31 29 28 28 27 27 27 27 26 26 27 26 25 24 24 25 25 25 27 28 28 29 28 26 24 22 22 21 18 17 17 15 15 22 27 27 30 31 27 27 29 26 23 23 20 21
25 24 25 29 30 28 29 31 30 27 25 22 22 23 25 27 28 28 29 31 31 31 30 29 27 26 25 26 27 29 30 29 28 28 29 29 29 30 29 27 26 27 28 27 26 26 26 27 27 26 26 25 25 25 25 26 27 28 28 29 30 31 30 26 24 24 23 21 20 20 18 18 24 29 28 28 29 28 28 29 25 22 22 17 13
25 27 29 29 28 27 26 26 26 25 23 21 23 27 30 31 31 30 29 29 28 28 28 28 27 26 25 26 28 29 30 31 30 29 30 31 33 32 29 25 25 26 26 27 28 27 27 26 26 25 25 25 25 25 25 25 27 28 29 30 31 32 33 32 29 28 27 24 23 22 23 23 25 28 29 28 30 29 27 26 26 25 23 20 16
26 28 29 26 26 26 25 24 25 26 24 23 26 30 32 32 30 28 27 26 25 26 27 27 27 26 26 26 28 30 32 32 29 28 29 30 32 32 28 26 26 26 26 27 28 28 27 25 24 24 24 24 24 24 24 24 25 27 29 30 31 33 34 35 34 33 33 31 27 26 29 28 26 30 33 31 29 28 26 25 27 26 23 22 22
27 27 25 25 25 25 25 25 25 26 25 26 29 31 30 29 27 25 25 26 25 25 26 26 25 25 25 26 28 30 32 30 27 26 25 24 26 28 26 25 26 26 27 29 29 28 28 26 26 25 25 25 26 26 27 27 26 25 27 29 31 33 34 36 37 36 35 34 32 31 33 32 29 30 33 32 31 31 29 28 27 27 25 23 24
27 25 25 25 25 25 25 26 25 26 26 27 29 29 27 26 25 25 25 26 25 25 25 26 25 25 25 26 27 27 25 22 21 22 22 20 22 24 24 23 24 25 27 30 30 29 28 28 28 28 27 28 29 29 29 30 29 27 27 29 31 32 34 36 37 38 37 36 36 36 35 33 31 30 31 32 33 33 31 30 28 27 25 21 20
26 26 26 26 26 26 26 26 25 26 26 27 29 27 26 25 26 26 26 26 26 24 23 23 24 24 24 24 24 24 20 17 17 18 19 19 20 22 22 22 22 24 26 28 29 29 29 30 30 29 30 31 32 32 32 32 31 30 29 29 29 31 33 36 37 39 39 37 37 36 33 31 30 29 30 32 33 32 29 26 24 24 22 17 16
26 27 26 26 26 26 25 25 26 27 27 28 27 26 26 26 26 26 26 26 25 24 23 23 23 22 22 22 22 22 21 18 17 18 19 19 20 21 21 21 22 24 25 26 27 28 30 31 31 31 32 33 33 33 32 31 31 31 29 28 27 28 30 33 34 36 37 38 37 35 31 29 29 28 28 31 34 34 30 25 24 26 22 14 11
28 28 28 27 27 25 25 26 27 27 27 26 26 27 27 27 27 26 25 25 25 25 25 24 24 22 21 22 22 22 22 20 18 19 20 20 21 22 23 23 22 23 23 24 25 27 28 29 30 31 32 33 34 33 31 30 31 31 29 27 26 26 28 30 31 30 30 32 33 32 30 28 27 26 26 30 35 36 33 29 28 29 23 15 12
29 29 28 27 27 26 26 27 26 25 25 26 27 27 27 27 28 26 24 24 27 28 27 25 24 22 21 22 22 22 23 23 22 21 21 22 22 23 24 24 23 23 23 23 24 27 29 30 31 31 32 32 32 31 29 30 31 32 30 27 25 26 28 29 30 28 28 28 28 29 27 25 25 25 26 29 33 34 33 32 31 30 24 19 16
30 28 28 28 28 28 27 26 25 25 26 28 28 28 29 30 30 29 28 27 27 28 29 27 25 24 23 23 23 23 23 23 21 19 18 19 19 19 19 19 20 21 22 23 25 27 29 31 32 32 32 31 29 28 28 31 33 33 30 27 26 27 28 29 30 30 29 28 27 27 26 24 25 26 27 28 31 32 31 30 30 30 26 23 20
29 28 29 29 29 29 27 26 26 28 28 29 29 32 33 32 30 30 30 27 24 25 27 26 22 20 20 20 20 19 17 16 16 14 14 14 15 16 17 17 17 17 19 21 24 25 27 29 31 30 30 30 29 29 29 31 33 33 32 31 29 27 27 27 28 28 28 26 26 27 26 26 27 28 29 29 29 29 27 25 25 26 24 21 19
29 30 30 30 30 29 28 28 29 29 28 29 30 32 32 28 26 27 25 23 23 23 24 22 17 15 17 18 17 16 16 15 16 15 14 13 14 15 17 18 17 17 17 17 20 21 23 26 27 27 28 29 29 29 28 29 31 31 32 30 26 23 25 26 25 26 27 27 28 28 28 29 29 29 29 28 26 25 23 21 20 19 17 15 15
31 31 31 30 30 30 30 30 29 28 28 28 28 28 26 25 24 24 21 21 21 20 20 20 17 15 16 18 18 18 17 16 16 15 15 15 15 15 16 17 17 18 17 16 17 19 20 22 23 25 26 26 26 26 26 26 28 28 28 25 21 22 25 26 27 28 29 28 28 27 27 28 30 28 27 27 25 23 21 19 17 16 14 13 13
32 32 31 31 31 31 30 30 29 28 27 27 25 24 24 24 24 21 19 19 18 17 17 18 16 15 16 18 19 17 14 14 15 15 16 16 15 15 15 15 15 16 17 16 17 18 19 21 22 22 20 20 21 22 22 21 22 24 25 22 21 25 28 28 29 30 28 27 26 25 24 26 29 28 27 26 24 22 20 17 15 14 13 13 13
33 32 32 31 31 31 31 29 28 27 26 25 24 23 24 24 22 20 19 18 15 15 16 16 16 16 15 16 16 14 13 16 17 16 16 15 14 13 13 13 12 12 14 15 17 17 18 18 18 17 16 16 17 18 18 17 19 23 25 23 24 28 30 29 29 28 26 24 23 23 23 24 26 27 26 24 22 20 18 16 14 13 13 13 12
33 33 33 32 31 31 30 29 28 27 26 25 23 22 22 22 22 22 20 17 15 16 16 15 16 16 14 13 14 15 17 19 18 16 15 14 14 13 12 11 10 9 9 11 13 12 11 12 12 12 13 14 15 15 15 16 20 24 25 24 26 28 29 29 28 26 24 23 23 24 24 23 23 24 23 21 19 17 15 14 13 12 12 12 11
32 33 32 32 31 30 29 28 27 27 27 25 24 23 23 22 22 22 21 19 18 17 16 16 16 15 13 14 16 17 18 18 16 15 14 13 14 12 8 4 4 6 7 8 8 7 8 9 9 10 11 11 11 11 13 17 22 24 24 25 27 28 28 28 28 26 25 25 25 26 24 23 22 22 21 18 16 14 12 12 13 13 13 13 13
32 32 31 31 30 29 29 28 27 27 27 26 24 24 24 24 23 23 22 21 20 19 19 19 17 15 15 16 16 15 15 16 15 14 13 13 12 5 4 8 9 10 10 9 10 9 9 9 10 11 13 14 15 15 17 19 22 24 25 26 25 25 25 25 25 25 26 27 28 27 25 24 23 21 19 16 14 14 14 14 15 16 16 15 13
32 31 30 30 29 29 28 27 27 27 27 26 25 24 23 22 22 24 25 23 21 22 23 22 19 19 20 18 15 12 13 15 15 12 11 11 6 4 11 11 10 10 11 12 14 13 12 13 16 18 19 21 22 22 23 24 24 25 26 26 25 23 23 24 26 26 27 29 29 28 26 25 22 20 18 16 16 16 16 16 16 16 16 14 13
31 30 30 29 29 29 28 28 29 27 26 26 27 26 23 20 18 20 23 25 24 25 25 23 22 23 22 16 12 10 12 13 12 10 8 6 2 8 10 10 11 13 13 15 16 16 16 17 18 19 20 21 20 20 23 25 25 24 23 24 25 24 23 24 26 27 29 30 30 28 26 25 22 20 19 19 19 18 17 16 16 15 15 14 13
29 29 30 29 30 29 28 29 29 28 27 27 27 26 26 24 21 18 20 23 26 26 25 22 22 24 22 15 11 10 9 8 7 7 5 2 8 10 10 11 13 13 15 17 17 17 17 17 16 16 19 19 18 19 21 23 23 23 22 22 23 23 24 24 26 27 29 28 28 27 26 24 24 23 22 22 21 19 17 15 15 15 14 13 12
29 29 29 29 29 29 28 28 28 27 27 27 26 25 24 24 23 23 25 26 25 24 24 23 23 26 24 16 11 11 10 7 6 6 3 8 11 11 11 14 14 13 15 18 17 16 16 17 16 16 18 18 17 19 22 23 23 24 23 22 21 22 24 25 26 27 28 27 27 26 25 25 25 25 24 24 23 21 18 17 16 15 13 12 10
30 29 28 28 29 28 28 27 26 25 26 26 25 24 23 20 20 23 28 31 29 26 25 25 24 26 25 18 13 11 9 7 6 4 7 12 13 12 13 14 13 13 16 18 18 15 16 17 16 16 18 19 18 20 21 22 23 23 23 23 22 22 23 25 25 25 26 25 26 26 25 26 26 26 25 24 23 21 20 17 16 14 13 11 9
31 29 28 27 27 27 27 26 26 25 25 25 24 23 22 20 20 20 21 24 25 24 25 25 25 25 24 20 16 12 9 8 7 7 13 15 15 16 16 15 13 12 15 18 19 17 16 17 17 17 19 20 20 21 22 21 22 23 23 23 23 23 23 24 24 24 24 24 25 26 26 27 28 27 25 23 21 20 19 17 16 14 13 11 10
31 29 28 28 27 26 26 26 25 25 25 24 24 23 22 21 20 18 16 16 16 17 21 23 24 23 22 21 19 15 10 7 8 15 18 17 15 14 15 15 15 14 14 16 17 17 17 18 18 18 19 21 22 23 23 23 24 24 24 24 24 24 23 23 23 24 25 25 26 27 27 27 28 27 26 23 21 20 19 17 16 14 12 11 10
30 28 28 29 28 27 27 26 25 25 25 24 24 23 22 21 19 17 16 16 15 14 17 21 22 22 21 19 19 19 16 15 17 19 17 13 10 10 13 15 15 14 14 15 16 16 17 19 19 19 20 21 21 22 23 23 24 25 25 25 25 24 24 24 25 25 26 27 27 27 27 27 27 26 24 23 21 20 18 17 15 13 11 11 10
30 28 28 30 30 28 26 26 26 26 25 24 23 23 22 20 19 17 16 15 14 14 16 18 19 20 20 18 16 17 18 19 20 18 15 11 9 10 13 15 15 14 14 14 16 18 17 17 19 20 20 21 21 22 22 23 24 24 24 24 25 25 25 25 26 27 27 27 27 27 27 27 26 24 23 21 20 18 16 15 14 13 12 10 9
29 29 30 31 30 27 25 26 27 26 25 24 23 22 21 20 19 17 15 14 13 14 15 16 16 16 17 16 13 12 14 17 18 17 16 14 13 13 14 15 14 15 15 14 17 19 18 17 19 20 21 21 22 22 23 24 24 24 23 24 24 24 25 25 26 26 27 27 27 27 26 24 23 21 19 19 18 17 16 15 15 14 13 11 9
30 30 32 31 29 26 25 25 25 25 24 23 23 22 20 19 18 17 15 14 13 14 14 15 16 16 16 15 13 13 14 16 16 16 16 17 16 14 14 14 14 15 15 15 17 19 19 19 19 19 20 22 22 23 24 24 23 23 23 24 25 24 25 26 27 26 27 27 26 24 23 21 20 19 17 16 17 17 17 17 15 13 12 10 7
30 30 30 30 28 26 26 24 24 24 24 23 23 22 19 18 17 16 15 14 14 14 14 14 16 17 17 15 14 15 16 16 14 14 16 17 16 15 14 14 14 14 15 16 17 18 19 19 20 20 21 21 22 22 23 23 22 22 23 24 26 26 26 26 26 25 25 24 23 22 21 20 19 18 17 16 16 16 16 15 13 10 8 6 5
29 28 28 29 28 26 25 24 24 24 24 23 22 21 18 17 17 16 15 15 15 15 14 13 15 17 18 17 15 16 17 15 14 15 16 17 16 15 14 13 13 14 14 15 16 17 18 18 19 20 20 20 21 21 21 21 20 21 22 23 25 25 25 25 24 23 22 22 21 21 21 20 20 19 18 17 16 15 13 11 9 8 7 6 5
28 27 27 27 26 25 24 23 24 24 23 23 23 21 18 18 18 16 16 16 16 15 14 14 15 16 17 17 17 18 18 17 17 18 18 17 16 15 13 11 11 11 12 13 14 15 17 17 18 18 19 19 19 19 19 19 19 20 21 22 24 25 24 23 22 22 21 21 21 21 20 20 19 18 17 16 14 12 10 9 8 7 7 6 6
27 26 25 25 25 24 24 24 24 24 23 23 23 21 18 18 18 17 16 16 16 15 14 14 14 15 16 17 17 19 19 19 20 20 19 17 16 15 12 10 9 8 9 9 11 12 14 15 16 16 16 17 17 17 16 15 15 16 19 21 23 24 24 23 22 21 21 21 20 20 19 18 17 16 15 13 11 10 9 9 8 8 7 7 7
26 25 25 25 25 24 24 24 24 23 23 23 23 21 19 19 18 18 17 16 15 15 15 14 14 14 15 16 17 18 18 18 19 19 18 17 16 14 12 10 9 8 8 8 8 8 10 11 13 14 13 13 13 12 11 10 10 13 16 19 22 23 23 22 22 21 20 20 19 18 17 17 16 14 12 11 10 10 10 10 9 8 8 8 9
27 26 26 25 24 24 25 25 24 23 23 24 23 21 20 19 19 18 17 16 15 15 15 15 14 14 14 15 16 17 17 17 18 18 17 16 16 14 12 10 10 10 10 9 8 8 8 9 10 11 12 11 11 10 9 9 10 11 13 16 18 19 19 19 18 17 17 16 16 16 16 15 13 12 11 10 11 11 10 10 10 9 9 10 10
27 27 26 25 24 24 24 25 24 24 24 23 22 21 20 20 19 18 17 16 15 15 15 15 15 15 14 15 15 15 16 17 18 17 16 16 15 14 12 12 12 12 12 11 11 10 10 10 11 11 12 12 11 11 10 10 10 10 10 12 13 13 13 14 13 13 13 13 12 12 13 12 12 11 11 10 11 11 10 10 10 11 11 11 12
27 27 26 24 24 24 24 24 23 23 23 23 22 20 20 20 20 19 18 17 16 15 15 16 16 15 15 15 14 14 15 16 16 15 15 15 14 14 13 13 13 14 14 14 14 13 13 12 12 12 12 12 11 11 11 11 11 11 11 10 10 10 11 12 11 11 10 10 10 10 10 10 10 10 10 10 10 11 11 11 11 12 12 12 13
27 27 25 24 23 23 23 23 23 23 23 23 22 20 20 20 20 19 19 18 16 16 16 17 16 16 15 14 14 13 14 14 14 14 14 14 13 14 14 14 14 15 15 15 15 14 14 13 13 12 12 12 11 11 12 12 12 12 12 12 11 11 11 12 11 10 9 9 8 8 8 8 8 8 9 10 10 11 11 11 12 12 12 13 14
27 27 25 23 23 23 23 23 24 23 23 22 21 20 20 20 20 20 19 18 17 17 17 17 17 17 16 15 15 15 15 15 15 14 14 13 13 13 14 14 15 16 16 16 16 15 14 14 13 12 12 12 12 13 13 13 13 13 13 12 12 11 10 10 9 8 8 8 7 7 6 7 7 7 9 9 9 10 11 11 12 13 13 13 14
27 26 25 23 23 24 23 24 24 24 23 22 21 20 20 20 20 20 19 18 18 18 18 18 18 18 17 16 16 16 16 16 15 14 13 12 12 12 13 13 14 15 15 16 16 15 14 14 14 14 14 14 14 14 14 14 13 12 11 11 11 10 9 8 8 7 6 6 5 5 6 6 7 7 8 9 9 10 11 11 12 13 13 14 15
28 26 25 24 24 24 24 24 24 24 23 22 21 21 20 21 21 20 18 18 18 17 17 17 18 18 18 17 17 16 16 15 14 13 12 12 11 12 12 13 14 15 16 16 16 16 16 16 16 15 15 15 14 14 14 13 12 11 10 10 9 8 7 7 6 5 5 4 4 5 5 5 6 7 7 8 9 10 11 12 12 13 14 15 16
Wind_Direction
316 317 321 324 322 321 320 320 320 316 313 310 306 305 303 299 294 288 280 279 282 282 281 280 278 274 271 269 268 268 267 263 258 253 250 250 250 250 251 249 247 250 253 251 247 239 233 232 233 233 232 229 228 227 226 227 229 229 227 225 226 226 221 217 225 230 211 213 212 208 207 205 204 207 208 208 212 215 219 225 228 229 232 233 232
321 323 323 321 319 321 324 326 323 316 310 306 304 302 298 294 293 288 280 277 280 282 280 277 274 271 270 270 269 268 269 269 265 258 250 247 247 247 246 244 243 245 246 247 248 245 238 233 232 232 229 228 228 228 227 226 225 226 224 222 223 223 222 219 223 222 197 205 208 204 203 201 202 205 206 208 211 212 215 220 223 227 230 233 233
323 322 319 317 319 324 325 323 319 312 306 302 301 299 294 294 296 290 280 278 280 283 284 281 278 276 277 277 273 270 270 271 271 263 253 246 243 243 242 240 239 240 239 241 243 243 241 238 235 234 230 227 227 227 227 225 224 224 223 221 221 222 220 219 222 217 187 190 198 197 197 200 202 205 207 210 211 210 211 215 219 223 226 230 233
319 317 316 319 321 320 318 318 315 309 305 302 299 298 295 295 297 297 292 289 289 291 295 294 292 290 287 285 281 275 272 272 274 269 260 250 243 240 240 238 237 237 236 238 239 237 236 237 237 236 232 230 229 227 225 224 222 222 223 223 223 223 220 217 219 218 199 183 192 195 195 198 202 205 206 207 209 209 208 211 215 219 222 225 229
314 316 320 320 317 315 314 313 309 305 303 301 300 301 300 297 298 304 307 306 306 306 305 303 300 297 293 290 285 280 277 276 275 270 264 255 248 243 240 238 237 237 237 238 237 234 232 233 235 234 230 229 230 228 226 224 221 220 221 223 224 226 225 220 218 217 208 191 186 192 195 196 199 202 202 200 201 204 206 209 211 214 217 221 225
314 320 320 316 313 310 308 307 306 307 305 304 307 311 309 305 305 310 314 317 319 318 315 312 308 304 301 298 291 283 279 276 274 271 265 259 253 246 241 238 237 237 239 239 236 234 232 233 235 236 235 232 230 228 226 224 222 220 220 221 222 224 226 224 218 214 211 197 182 183 190 193 193 196 200 199 195 195 198 203 208 211 212 215 221
322 321 315 310 308 306 306 309 315 318 314 312 316 317 314 313 312 314 319 321 321 320 318 315 311 306 303 301 297 290 284 279 276 273 267 259 252 247 242 237 236 237 239 240 238 235 234 235 235 236 239 240 238 235 230 225 222 220 220 220 220 219 220 221 218 213 210 196 180 182 187 190 192 194 197 198 197 197 196 194 198 204 207 212 218
326 320 312 308 311 315 320 322 321 319 314 310 313 315 312 310 310 314 319 319 318 317 315 312 308 302 298 296 295 294 291 287 282 278 274 265 256 251 245 238 234 236 237 237 236 236 237 237 237 238 240 243 243 242 237 231 224 221 221 218 216 216 216 216 214 211 210 200 187 185 184 186 192 193 191 192 195 201 199 193 191 196 203 211 217
321 318 317 318 323 326 326 323 318 314 310 305 307 309 308 310 317 323 324 321 317 313 310 309 304 295 291 290 290 291 289 286 283 279 279 276 265 255 246 238 234 234 234 233 233 233 234 236 239 243 244 244 244 244 242 238 230 225 223 219 215 214 214 214 211 207 208 207 196 187 183 187 191 187 185 192 197 199 196 194 196 198 199 205 212
320 322 326 327 323 319 320 318 311 306 304 301 303 309 315 322 327 326 322 317 314 311 308 305 298 289 285 284 284 285 284 282 279 275 275 277 268 253 241 234 233 233 232 229 228 230 231 234 239 244 245 244 243 243 243 243 240 235 230 224 219 215 212 211 210 207 207 208 203 192 187 194 196 192 192 197 199 197 192 192 195 193 191 198 209
322 325 327 324 319 315 314 311 305 302 304 308 316 323 326 325 323 319 316 313 311 309 305 300 292 285 281 280 279 280 280 278 275 271 271 274 269 253 239 235 234 234 234 232 231 234 236 238 240 240 240 240 241 242 243 244 245 244 240 234 227 222 217 212 209 208 207 210 209 200 194 201 202 199 199 197 195 195 195 193 191 184 184 191 204
324 325 323 320 318 315 312 310 311 313 317 324 330 329 325 322 319 315 312 309 305 302 299 294 288 284 280 277 276 275 275 275 271 265 263 266 265 254 241 237 237 235 236 235 234 236 236 236 237 235 235 237 239 241 242 243 245 247 246 241 236 231 226 220 216 211 208 210 212 206 204 205 202 200 201 198 194 195 196 194 192 188 187 191 196
325 322 319 318 318 319 318 319 319 318 321 326 327 325 321 317 314 310 307 304 300 295 294 292 288 283 278 275 274 273 272 270 264 258 256 260 261 252 239 236 240 238 236 236 235 235 234 232 231 232 234 235 236 237 240 243 244 245 247 246 241 236 232 228 225 220 214 212 212 212 212 208 203 203 204 200 194 191 192 195 196 194 192 194 196
323 320 319 321 321 322 321 320 318 315 318 321 320 319 316 311 308 306 302 300 297 293 291 292 290 285 279 274 273 273 270 265 258 255 256 258 259 254 244 241 241 237 235 237 237 236 235 233 231 232 235 235 235 236 236 236 238 239 242 244 243 239 234 230 228 225 222 218 215 218 218 213 210 209 206 201 197 194 194 196 197 196 197 200 200
323 322 323 322 322 322 320 318 315 314 315 317 316 314 311 306 305 304 300 297 294 291 288 287 286 285 282 277 276 277 274 268 262 258 256 255 257 257 254 250 244 238 238 239 238 238 238 236 234 233 235 238 239 237 232 229 229 230 233 237 239 238 234 230 227 225 223 221 220 221 221 217 215 213 206 202 202 201 200 200 199 198 198 197 195
326 326 325 324 323 321 319 316 315 315 315 315 314 311 309 306 305 303 299 295 292 287 283 282 281 282 284 284 284 288 289 286 277 268 262 260 262 262 259 256 251 244 241 239 237 236 234 232 231 230 233 237 239 237 232 228 225 225 227 230 232 232 231 229 227 225 222 222 222 222 221 218 216 215 210 204 202 202 200 198 196 192 186 181 180
329 327 325 324 322 320 318 317 316 315 314 313 311 309 308 306 303 301 297 294 292 288 283 282 282 281 283 285 286 286 288 289 284 275 269 265 264 263 260 258 253 247 243 240 236 234 232 229 228 228 230 233 235 233 229 224 222 222 225 227 227 226 226 225 224 222 221 220 220 220 220 218 216 216 212 205 202 200 193 187 185 182 178 174 178
329 327 324 323 322 320 318 316 314 313 311 310 309 308 307 304 301 300 296 291 290 288 285 284 282 281 280 280 281 278 276 279 277 269 266 263 260 259 257 254 252 250 246 242 238 236 234 233 233 232 230 230 231 230 224 219 219 220 221 222 219 219 220 219 215 214 213 214 216 216 216 216 214 212 209 205 203 201 196 191 186 181 178 181 185
328 326 324 322 321 319 317 314 312 310 309 309 309 307 306 303 301 298 293 290 291 293 292 286 281 282 281 277 275 274 273 276 278 274 272 270 266 262 257 251 246 244 242 240 238 237 236 237 237 235 232 231 229 227 223 219 219 219 218 214 211 213 214 211 206 204 201 201 204 206 207 208 206 202 200 202 203 203 202 200 192 184 182 184 181
326 325 324 322 320 318 316 313 311 310 310 310 308 306 306 307 306 305 304 302 301 302 303 297 287 287 291 288 284 281 278 281 285 287 287 284 280 277 269 258 249 244 239 231 229 229 230 233 234 233 232 230 227 226 227 225 222 219 213 208 208 211 210 205 200 197 194 192 192 193 193 193 190 186 185 189 193 196 201 204 200 194 190 187 184
327 326 324 323 321 319 317 314 314 314 314 311 309 310 313 313 312 312 312 311 308 308 309 305 298 300 308 308 304 300 296 296 301 302 300 293 288 283 276 269 263 258 249 237 228 222 219 221 226 229 229 228 228 229 232 231 224 216 210 210 212 210 204 197 193 190 186 182 179 179 179 177 173 172 173 178 183 188 194 200 201 200 199 195 193
329 327 325 323 322 320 319 319 319 319 317 316 313 313 316 316 314 313 313 312 312 313 314 314 316 326 330 326 322 319 316 313 310 307 306 301 293 284 277 274 270 265 257 244 231 221 215 216 223 228 229 230 232 231 230 231 225 214 208 209 208 201 194 188 182 178 175 171 167 165 165 163 161 162 166 171 177 182 186 188 190 195 201 205 207
328 326 325 324 323 323 323 323 324 322 320 320 318 315 316 318 317 316 316 316 316 317 320 321 322 326 328 326 322 318 316 317 315 309 308 305 297 287 279 274 271 265 255 240 226 222 222 224 229 232 232 233 233 227 224 228 225 210 201 199 193 184 181 177 171 169 167 162 158 157 157 157 156 157 163 169 174 178 180 183 188 194 202 212 221
328 326 326 325 325 325 325 325 326 325 324 324 322 319 320 321 319 318 319 319 317 316 320 321 317 316 319 319 317 315 318 325 322 312 306 303 296 289 282 274 266 260 252 243 234 229 229 230 232 231 228 231 231 223 218 224 220 202 190 185 180 175 173 169 166 163 158 155 154 153 153 155 157 161 166 169 171 175 179 184 192 202 212 223 230
328 327 327 326 327 327 327 327 327 327 327 327 325 322 322 322 321 321 321 319 315 314 317 318 315 312 313 315 316 318 321 320 315 310 309 307 300 294 287 277 268 259 251 241 234 231 231 232 232 227 223 225 221 213 213 216 205 189 181 177 173 170 167 164 161 157 154 153 152 149 150 156 162 167 169 168 169 174 182 190 199 210 220 225 223
327 328 328 328 328 328 328 328 329 329 329 329 327 326 325 323 321 320 321 320 317 314 314 314 312 309 311 318 321 319 317 315 313 312 315 314 310 306 296 283 271 258 239 224 221 222 220 218 218 213 212 210 204 202 207 201 185 178 174 170 166 164 162 161 158 156 154 152 150 150 154 160 164 165 165 168 174 180 189 198 205 209 209 204 198
328 328 329 329 329 330 330 328 329 330 331 331 332 331 329 327 322 319 320 320 317 314 312 312 311 312 317 321 318 315 316 316 318 321 321 320 323 323 313 275 214 186 176 180 184 180 177 184 191 192 189 183 180 185 186 175 166 162 159 158 159 161 161 161 160 157 154 153 153 154 156 157 159 160 164 170 177 182 189 195 195 190 184 178 171
330 329 329 330 330 330 331 329 330 330 330 332 333 332 331 330 325 319 319 317 311 310 311 310 310 314 316 313 311 315 318 318 321 325 323 325 330 341 129 135 139 145 148 149 149 152 160 161 151 145 139 130 127 132 136 139 141 140 140 145 150 153 155 156 154 152 153 154 153 151 151 153 156 159 164 169 173 175 178 182 183 178 171 165 160
331 330 331 331 331 331 331 331 330 330 329 330 332 331 330 329 324 321 324 324 317 311 312 312 314 319 317 311 306 301 301 311 320 321 318 321 319 158 142 134 135 138 140 145 145 140 136 127 119 117 115 113 114 115 116 118 121 125 132 139 143 145 149 151 149 149 151 152 150 148 149 151 154 159 161 163 166 170 172 175 178 174 166 161 157
331 332 332 332 332 332 332 332 331 331 329 329 331 331 333 334 328 321 324 328 326 322 321 325 331 334 334 334 332 313 299 310 322 323 324 327 208 159 137 127 133 133 137 143 139 126 117 111 109 111 114 113 114 115 117 118 119 121 128 136 142 145 148 148 148 148 150 151 151 151 152 152 154 159 160 160 162 164 168 173 174 169 162 156 150
331 331 332 332 331 331 331 331 331 331 331 331 331 331 332 336 337 331 327 328 328 329 332 340 347 348 348 353 358 346 332 332 336 334 344 82 141 136 120 123 128 131 140 141 125 111 110 107 104 109 114 114 116 118 120 122 121 122 125 130 138 145 146 146 148 150 151 152 152 154 156 158 158 160 162 162 161 160 163 168 167 161 156 150 144
330 329 329 329 330 331 331 330 330 330 331 331 332 331 331 333 336 339 341 341 339 340 345 354 359 357 355 360 8 5 5 8 358 357 61 130 134 124 123 128 125 129 144 136 114 105 110 109 107 111 113 112 116 120 123 125 127 129 131 131 135 144 148 150 153 155 155 155 155 156 160 161 162 164 165 164 160 158 160 161 158 153 150 145 145
331 328 328 329 331 331 331 331 330 330 329 329 329 330 331 331 331 335 342 349 356 1 2 6 7 1 360 10 22 20 24 28 12 30 112 129 126 116 116 117 116 131 144 130 111 107 112 110 112 117 118 118 122 123 125 129 131 135 138 137 139 145 150 153 157 159 159 160 160 160 162 163 163 164 164 164 162 160 158 156 155 155 155 155 159
333 331 330 331 330 330 330 330 328 327 327 327 326 327 328 329 327 327 331 341 351 356 358 5 13 9 8 18 31 32 29 26 32 89 116 116 111 110 108 102 102 122 134 125 117 116 116 114 117 121 124 127 129 128 129 132 134 136 138 139 141 146 151 155 159 160 160 161 162 162 163 165 165 164 162 162 162 160 158 158 159 161 163 165 168
336 334 334 334 333 331 330 329 328 327 327 327 326 325 324 324 325 325 324 324 328 332 340 353 7 13 16 22 29 30 28 44 89 108 110 108 111 116 112 100 96 103 111 115 118 122 122 123 125 128 131 134 134 134 135 137 140 142 142 143 145 148 152 156 160 161 162 162 163 164 165 167 167 167 165 164 163 162 163 165 167 168 169 170 171
338 336 336 337 336 333 331 330 330 329 328 327 325 324 324 324 325 326 327 326 325 329 337 347 0 16 24 27 31 40 54 79 97 99 100 107 119 119 107 97 96 100 105 111 118 123 126 129 132 134 136 136 136 138 140 141 144 147 148 150 153 154 157 159 161 161 162 162 163 166 167 168 168 169 167 167 168 168 167 167 169 172 173 172 174
338 337 337 337 336 334 333 334 334 333 331 330 329 327 327 328 330 330 331 333 336 342 347 351 360 12 20 25 35 51 65 80 89 90 91 98 104 101 100 101 104 108 111 117 123 125 127 132 137 139 140 139 139 142 144 146 148 149 152 156 159 159 160 161 161 161 162 163 165 167 168 168 170 171 170 168 168 169 169 169 171 174 176 179 182
339 338 338 338 337 336 336 336 336 337 337 335 335 334 333 334 337 338 339 343 349 352 355 360 3 8 13 22 39 63 75 80 82 79 78 81 85 90 98 102 106 111 115 123 129 130 130 135 141 142 143 144 146 148 150 151 152 154 156 158 158 158 159 160 161 163 164 164 165 167 168 169 171 174 174 172 170 171 175 177 178 179 182 187 190
340 340 340 341 340 340 339 339 339 340 340 340 341 341 342 344 347 349 351 357 0 358 0 7 10 11 18 31 47 66 72 69 65 63 66 72 79 87 94 99 104 112 119 126 132 135 136 140 145 147 148 150 153 156 156 156 157 159 159 157 155 156 160 162 163 165 166 165 165 167 170 171 173 176 179 179 178 179 181 182 185 186 186 191 198
339 340 341 342 342 341 342 343 343 343 343 344 344 345 348 352 355 358 1 5 4 2 6 13 14 16 25 39 54 66 68 63 61 63 66 70 74 78 85 93 100 109 120 128 134 138 140 144 149 151 152 154 158 159 160 160 160 159 160 159 159 161 163 165 166 167 167 168 168 170 173 176 177 179 184 187 187 184 182 182 185 186 187 194 209
340 340 341 343 344 343 344 347 347 346 347 348 347 348 353 359 1 3 6 8 6 5 12 20 21 24 31 41 55 71 74 69 66 67 66 68 72 73 76 84 94 105 117 128 136 142 144 147 152 154 155 158 161 161 161 162 161 161 163 165 165 164 165 167 169 170 171 172 174 176 179 182 183 183 185 187 185 182 181 182 185 190 197 207 222
342 342 342 344 345 346 347 347 348 349 351 353 352 353 358 4 6 7 9 10 10 11 16 21 25 29 34 42 57 73 77 76 77 77 73 73 75 76 76 80 86 97 112 125 136 144 147 150 155 158 160 162 164 165 164 162 162 165 167 169 168 168 168 170 172 174 175 178 180 182 183 184 186 188 187 186 184 183 186 191 193 199 211 221 232
344 344 345 346 347 348 348 348 349 351 353 354 353 356 3 9 10 10 12 14 16 18 20 22 25 30 36 46 61 71 74 76 81 83 79 77 79 80 82 86 88 93 104 116 130 141 147 151 154 159 164 167 168 167 164 162 166 170 172 172 173 172 172 173 175 178 181 182 182 183 185 185 187 189 189 188 189 191 193 199 204 210 221 233 242
348 348 348 349 350 351 352 351 352 353 354 355 356 0 7 10 10 11 14 17 20 24 25 24 26 31 35 44 56 63 66 72 80 82 80 80 82 83 86 93 99 104 106 108 118 133 144 149 151 154 158 161 163 163 162 167 178 181 178 177 176 177 178 180 181 182 185 184 183 184 187 188 190 193 194 195 198 201 203 209 216 221 228 238 245
351 351 351 351 352 353 354 354 354 354 356 357 359 2 7 10 11 13 16 18 22 26 29 29 31 36 38 42 50 58 65 72 78 80 81 83 86 89 94 100 107 113 115 115 120 133 142 145 147 149 150 152 156 161 167 174 182 185 184 181 180 181 183 185 185 185 187 188 188 189 191 192 195 198 201 203 206 211 215 219 225 231 238 244 250
353 353 353 353 354 355 355 355 355 356 357 358 359 1 6 10 11 14 17 20 23 26 29 32 35 39 43 46 51 58 67 73 76 78 81 83 86 91 99 106 112 117 120 121 125 132 137 139 142 146 149 152 155 159 164 168 169 173 178 180 181 183 183 183 184 186 187 190 194 194 194 197 200 202 206 211 214 218 224 227 232 240 246 250 256
356 356 356 355 356 357 357 356 356 357 358 359 359 1 6 9 11 14 18 22 25 28 31 34 37 41 44 47 50 55 64 72 74 75 79 84 88 94 102 110 115 118 120 123 125 127 128 131 136 137 138 142 145 147 151 154 155 155 158 160 165 171 172 172 176 179 180 184 191 193 195 201 204 205 212 219 221 225 231 234 239 247 252 256 263
359 359 358 358 358 358 358 358 358 358 358 358 358 1 6 9 11 15 19 22 26 30 33 34 38 42 45 46 49 54 63 71 73 76 80 85 90 97 105 111 116 120 121 121 123 125 125 127 130 129 128 129 131 131 134 138 139 140 142 143 147 154 159 162 167 171 172 178 187 192 199 208 212 215 223 229 230 235 240 241 246 254 259 263 268
1 1 0 360 360 359 359 359 359 359 358 358 359 1 6 9 12 16 21 23 27 32 35 36 38 42 46 50 57 62 66 70 72 75 80 84 88 96 104 109 113 117 118 117 119 122 124 124 125 123 121 120 119 119 122 126 129 132 135 137 139 144 149 154 159 166 171 180 190 198 207 217 223 229 235 238 238 240 244 248 255 262 266 268 273
4 3 3 2 1 1 1 2 2 1 0 360 360 1 5 8 10 14 20 24 27 33 37 39 42 45 47 50 57 61 63 65 66 69 75 82 87 93 99 104 107 110 110 112 114 116 116 116 117 116 115 115 115 116 118 121 123 127 130 130 133 137 141 146 153 162 171 183 197 207 214 223 230 234 237 240 241 244 251 258 264 269 273 276 279
7 7 7 6 4 4 4 5 5 4 3 3 1 0 4 8 9 12 19 24 28 33 36 38 42 47 49 50 54 56 59 62 65 66 71 76 82 87 92 97 101 103 104 105 107 108 108 110 111 111 112 113 113 114 115 116 117 119 121 122 126 131 135 141 150 162 173 187 203 215 222 230 237 238 241 246 250 255 263 270 274 278 281 281 282